Location: Unspecified
(40.7945°N, 0.0000°E)
Time: 10:40:27
(UTC+00:00)

TIGRISAT - Pass Details

Date: 27 August 2019
Orbit: 605 x 689 km, 97.7° (Epoch: 15 September)

Event Time Altitude Azimuth Distance (km) Brightness Sun altitude
Rises 19:49:15 0° 30° (NNE) 3,004 ? -13.0°
Reaches altitude 10° 19:52:13 10° 50° (NE) 2,069 ? -13.5°
Enters shadow 19:54:47 17° 85° (E) 1,628 ? -13.9°
